Change the Weather History Date:

Friday, November 2, 2012

  Actual Average Record
Temperature  
Mean Temperature 56 °F -  
Max Temperature 71 °F 52 °F 71 °F (2004)
Min Temperature 42 °F 29 °F 23 °F (2011)
Degree Days  
Heating Degree Days 8    
Growing Degree Days 6 (Base 50)    
Moisture  
Dew Point 42 °F    
Average Humidity 66    
Maximum Humidity 87    
Minimum Humidity 21    
Precipitation  
Precipitation 0.00 in - - ()
Sea Level Pressure  
Sea Level Pressure 30.08 in    
Wind  
Wind Speed 1 mph ()    
Max Wind Speed 7 mph    
Max Gust Speed -    
Visibility 6.4 miles    
Events      
Averages and records for this station are not official NWS values.
T = Trace of Precipitation, MM = Missing Value Source: Averaged Metar Reports

Daily Weather History Graph

Daily Weather History Graph

Search for Another Location

Airport or City:

Trip Planner

Search our weather history database for the weather conditions in past years. The results will help you decide how hot, cold, wet, or windy it might be!

Date:

Astronomy

Nov. 02, 2012 Rise Set
Actual Time 6:06 AM EET 4:36 PM EET
Civil Twilight 5:38 AM EET 5:04 PM EET
Nautical Twilight 5:07 AM EET 5:35 PM EET
Astronomical Twilight 4:36 AM EET 6:06 PM EET
Moon 7:07 PM EET (11/2) 9:09 AM EET (11/2)
Length of Visible Light 11h 25m
Length of Day
10h 30m
Waning Gibbous, 89% of the Moon is Illuminated
Nov 2
Waning Gibbous
Nov 7
Last Quarter
Nov 14
New
Nov 20
First Quarter
Nov 28
Full

Hourly Weather History & Observations

Time (EET) Temp. Windchill Dew Point Humidity Pressure Visibility Wind Dir Wind Speed Gust Speed Precip Events Conditions
12:20 AM 42.8 °F - 39.2 °F 87% 30.09 in - Calm Calm - N/A   Clear
12:50 AM 42.8 °F - 39.2 °F 87% 30.09 in - NE 1.2 mph - N/A   Clear
1:20 AM 44.6 °F 43.1 °F 39.2 °F 81% 30.09 in - NNE 3.5 mph - N/A   Clear
1:50 AM 44.6 °F - 41.0 °F 87% 30.09 in - Calm Calm - N/A   Clear
2:00 AM 45 °F - 40 °F 78%  in 12 mi Calm Calm - -   Clear
2:20 AM 44.6 °F - 41.0 °F 87% 30.09 in - Calm Calm - N/A   Clear
2:50 AM 44.6 °F - 41.0 °F 87% 30.06 in 6.2 mi NE 2.3 mph - N/A   Mostly Cloudy
3:20 AM 44.6 °F - 41.0 °F 87% 30.09 in 6.2 mi Calm Calm - N/A   Mostly Cloudy
3:50 AM 46.4 °F - 42.8 °F 87% 30.09 in 6.2 mi Calm Calm - N/A   Mostly Cloudy
4:20 AM 46.4 °F - 42.8 °F 87% 30.09 in 6.2 mi Calm Calm - N/A   Mostly Cloudy
4:50 AM 46.4 °F - 42.8 °F 87% 30.09 in 6.2 mi Calm Calm - N/A   Mostly Cloudy
5:20 AM 46.4 °F - 42.8 °F 87% 30.09 in 6.2 mi Calm Calm - N/A   Mostly Cloudy
5:50 AM 46.4 °F - 42.8 °F 87% 30.09 in 6.2 mi Calm Calm - N/A   Mostly Cloudy
6:20 AM 46.4 °F - 42.8 °F 87% 30.09 in 6.2 mi NE 2.3 mph - N/A   Mostly Cloudy
6:50 AM 48.2 °F - 42.8 °F 82% 30.09 in 6.2 mi Calm Calm - N/A   Mostly Cloudy
7:20 AM 50.0 °F - 44.6 °F 82% 30.12 in 6.2 mi Calm Calm - N/A   Mostly Cloudy
7:50 AM 51.8 °F - 44.6 °F 76% 30.12 in 6.2 mi Calm Calm - N/A   Mostly Cloudy
8:00 AM 52 °F - 44 °F 67%  in 12 mi Calm Calm - -   Partly Cloudy
8:20 AM 53.6 °F - 44.6 °F 72% 30.12 in 6.2 mi Variable 1.2 mph - N/A   Mostly Cloudy
8:50 AM 55.4 °F - 44.6 °F 67% 30.12 in 6.2 mi Calm Calm - N/A   Mostly Cloudy
9:20 AM 57.2 °F - 44.6 °F 63% 30.12 in 6.2 mi Calm Calm - N/A   Mostly Cloudy
9:50 AM 59.0 °F - 46.4 °F 63% 30.12 in 6.2 mi Variable 1.2 mph - N/A   Mostly Cloudy
10:20 AM 60.8 °F - 44.6 °F 55% 30.12 in 6.2 mi Variable 1.2 mph - N/A   Mostly Cloudy
10:50 AM 62.6 °F - 44.6 °F 52% 30.09 in 6.2 mi Variable 1.2 mph - N/A   Mostly Cloudy
11:20 AM 66.2 °F - 44.6 °F 46% 30.09 in 6.2 mi Calm Calm - N/A   Mostly Cloudy
11:50 AM 68.0 °F - 42.8 °F 40% 30.09 in 6.2 mi Calm Calm - N/A   Mostly Cloudy
12:20 PM 68.0 °F - 42.8 °F 40% 30.06 in 6.2 mi Calm Calm - N/A   Mostly Cloudy
12:50 PM 68.0 °F - 42.8 °F 40% 30.06 in 6.2 mi Variable 2.3 mph - N/A   Mostly Cloudy
1:20 PM 69.8 °F - 41.0 °F 35% 30.06 in 6.2 mi SSE 3.5 mph - N/A   Mostly Cloudy
1:50 PM 69.8 °F - 39.2 °F 33% 30.06 in 6.2 mi Variable 3.5 mph - N/A   Mostly Cloudy
2:00 PM 70 °F - 39 °F 21%  in 12 mi West 3.5 mph - -   Partly Cloudy
2:20 PM 69.8 °F - 39.2 °F 33% 30.06 in 6.2 mi West 4.6 mph - N/A   Mostly Cloudy
2:50 PM 69.8 °F - 41.0 °F 35% 30.06 in 6.2 mi WSW 5.8 mph - N/A   Mostly Cloudy
3:20 PM 68.0 °F - 39.2 °F 35% 30.06 in 6.2 mi West 6.9 mph - N/A   Mostly Cloudy
3:50 PM 68.0 °F - 41.0 °F 37% 30.06 in 6.2 mi West 4.6 mph - N/A   Mostly Cloudy
4:20 PM 66.2 °F - 42.8 °F 43% 30.06 in 6.2 mi WNW 5.8 mph - N/A   Mostly Cloudy
4:50 PM 64.4 °F - 42.8 °F 45% 30.06 in 6.2 mi NW 3.5 mph - N/A   Mostly Cloudy
5:20 PM 62.6 °F - 42.8 °F 48% 30.06 in 6.2 mi Calm Calm - N/A   Mostly Cloudy
5:50 PM 57.2 °F - 42.8 °F 59% 30.06 in 6.2 mi Calm Calm - N/A   Scattered Clouds
6:20 PM 55.4 °F - 44.6 °F 67% 30.06 in 4.3 mi Calm Calm - N/A   Scattered Clouds
6:50 PM 55.4 °F - 44.6 °F 67% 30.06 in 3.7 mi ESE 1.2 mph - N/A   Mostly Cloudy
7:20 PM 55.4 °F - 42.8 °F 63% 30.06 in 5.6 mi Variable 2.3 mph - N/A   Mostly Cloudy
7:50 PM 53.6 °F - 44.6 °F 72% 30.06 in 5.6 mi ENE 1.2 mph - N/A   Mostly Cloudy
8:00 PM 53 °F - 44 °F 62%  in 6 mi ENE 1.2 mph - -   Mist
8:20 PM 51.8 °F - 42.8 °F 71% 30.09 in 6.2 mi NE 2.3 mph - N/A   Mostly Cloudy
8:50 PM 50.0 °F - 42.8 °F 76% 30.09 in 6.2 mi NE 2.3 mph - N/A   Mostly Cloudy
9:20 PM 50.0 °F - 42.8 °F 76% 30.09 in 6.2 mi Calm Calm - N/A   Scattered Clouds
9:50 PM 46.4 °F - 41.0 °F 81% 30.09 in 6.2 mi NNE 2.3 mph - N/A   Scattered Clouds
10:20 PM 48.2 °F - 41.0 °F 76% 30.09 in 6.2 mi NNE 3.5 mph - N/A   Scattered Clouds
10:50 PM 46.4 °F 44.3 °F 41.0 °F 81% 30.09 in 6.2 mi NNE 4.6 mph - N/A   Scattered Clouds
11:20 PM 46.4 °F 43.5 °F 41.0 °F 81% 30.09 in 6.2 mi NNE 5.8 mph - N/A   Scattered Clouds
11:50 PM 46.4 °F - 41.0 °F 81% 30.09 in 6.2 mi NE 2.3 mph - N/A   Scattered Clouds